{"data":{"norad_id":66986,"intl_designator":"2025-288AD","name":"STARLINK-36135","alt_names":[],"object_type":"PAYLOAD","status":"ACTIVE","operator":null,"country":"US","launch_date":"2025-12-08","launch_site_code":"AFETR","launch_vehicle":null,"mission":null,"orbit_class":"UNKNOWN","rcs_meters":null,"size_class":null,"mass_kg":null,"dimensions":null,"purposes":["comms"],"wikipedia_slug":null,"has_3d_model":false,"image_url":null,"decayed_at":null,"tle_current":{"epoch":"2026-09-20T07:46:03.641664Z","epoch_age_seconds":96783,"freshness":"FRESH","line1":"1 66986U 25288AD  26263.32365326  .00004526  00000+0  17389-3 0  9996","line2":"2 66986  43.0025   4.3010 0001318 277.8305  82.2397 15.27578971 45051","mean_motion":15.27578971,"eccentricity":0.0001318,"inclination_deg":43.0025,"raan_deg":4.301,"arg_perigee_deg":277.8305,"mean_anomaly_deg":82.2397,"bstar":0.00017389,"rev_number":4505,"period_min":94.266812213141,"perigee_km":482.147872504,"apogee_km":483.95648197112,"semimajor_km":6861.1891772376,"source":"CELESTRAK","updated_at":"2026-09-21T09:00:36.067684Z"}}}